Location: Unspecified
(44.0704°N, 88.6889°W)
Time: 10:24:00
(UTC+02:00)

Altair - Pass Details

Date: 16 June 2019
Orbit: 1501 x 1683 km, 47.2° (Epoch: 17 July)

Event Time Altitude Azimuth Distance (km) Brightness Sun altitude
Rises 03:12:28 0° 188° (S) 4,693 9.8 3.3°
Reaches altitude 10° 03:16:20 10° 174° (S) 3,742 9.2 2.7°
Maximum altitude 03:23:10 23° 127° (SE) 2,923 8.4 1.7°
Drops below altitude 10° 03:30:09 10° 81° (E) 3,860 9.2 0.6°
Sets 03:34:11 0° 68° (ENE) 4,878 9.8 0.0°
